Location: Zaragoza
(41.6330°N, 0.8830°W)
Time: 18:49:36
(UTC+02:00)

ISS - Visible Passes

Search period start: 23 May 2017 00:00
Search period end: 02 June 2017 00:00
Orbit: 402 x 409 km, 51.6° (Epoch: 24 May)

Date Brightness Start Highest point End Pass type
(mag) Time Alt. Az. Time Alt. Az. Time Alt. Az.
23 May -1.2 01:15:15 21° N 01:15:15 21° N 01:17:03 10° NE visible
23 May -0.5 02:49:43 10° NW 02:51:37 14° N 02:53:31 10° NE visible
23 May -1.2 04:26:19 10° NW 04:29:00 23° NNE 04:31:41 10° ENE visible
23 May -3.1 22:42:40 10° SSW 22:45:37 31° SE 22:48:34 10° ENE visible
24 May -2.2 00:19:00 10° W 00:22:04 35° NNW 00:25:08 10° NE visible
24 May -0.6 01:57:15 10° NW 01:59:17 15° N 02:01:19 10° NNE visible
24 May -0.8 03:34:23 10° NNW 03:36:44 18° NNE 03:39:05 10° ENE visible
24 May -3.3 05:10:27 10° NW 05:13:44 63° NNE 05:16:57 10° ESE visible
24 May -3.2 23:26:41 10° WSW 23:29:56 58° NNW 23:33:12 10° NE visible
25 May -0.8 01:04:38 10° WNW 01:06:57 17° NNW 01:09:16 10° NNE visible
25 May -0.6 02:42:21 10° NNW 02:44:24 15° N 02:46:28 10° NE visible
25 May -2.2 04:18:30 10° NW 04:21:35 37° NNE 04:24:40 10° E visible
25 May -2.9 05:55:09 10° WNW 05:58:00 28° SW 06:00:51 10° SSE visible
25 May -3.9 22:34:34 10° SW 22:37:51 77° SE 22:41:09 10° ENE visible
26 May -1.2 00:12:00 10° WNW 00:14:39 22° NNW 00:17:19 10° NE visible
26 May -0.5 01:50:08 10° NW 01:52:03 14° N 01:53:57 10° NE visible
26 May -1.5 03:26:34 10° NW 03:29:23 25° NNE 03:32:11 10° E visible
26 May -3.8 05:02:50 10° WNW 05:06:03 54° SW 05:09:14 10° SE visible
26 May -1.7 23:19:26 10° W 23:22:24 30° NNW 23:25:22 10° NE visible
27 May -0.5 00:57:42 10° NW 00:59:40 15° N 01:01:38 10° NNE visible
27 May -1.0 02:34:36 10° NNW 02:37:05 19° NNE 02:39:34 10° ENE visible
27 May -3.8 04:10:42 10° NW 04:14:01 79° NE 04:17:16 10° ESE visible
27 May -1.9 05:48:46 10° WSW 05:50:02 12° SW 05:51:19 10° SSW visible
27 May -2.6 22:27:00 10° WSW 22:30:12 47° NNW 22:33:24 10° NE visible
28 May -0.7 00:05:05 10° NW 00:07:17 16° N 00:09:29 10° NNE visible
28 May -0.7 01:42:35 10° NNW 01:44:45 16° N 01:46:54 10° NE visible
28 May -1.4 03:18:41 10° NW 03:19:49 19° NW 03:19:49 19° NW visible
28 May -1.0 23:12:24 10° WNW 23:14:55 20° NNW 23:17:27 10° NNE visible
29 May -0.6 00:50:24 10° NNW 00:52:21 15° N 00:54:18 10° NE visible
29 May -1.4 02:26:42 10° NW 02:28:25 22° NNW 02:28:25 22° NNW visible
29 May -1.4 22:19:45 10° W 22:22:36 26° NNW 22:25:28 10° NE visible
29 May -0.7 23:58:00 10° NW 23:59:56 14° N 00:01:52 10° NNE visible
30 May -1.3 01:34:43 10° NW 01:37:19 21° NNE 01:37:30 21° NNE visible
30 May -0.8 23:05:24 10° NW 23:07:30 16° N 23:09:36 10° NNE visible
31 May -1.0 00:42:41 10° NNW 00:44:58 17° NNE 00:46:46 12° NE visible
31 May -1.0 02:18:45 10° NW 02:19:23 15° NW 02:19:23 15° NW visible
31 May -0.9 22:12:41 10° WNW 22:15:06 18° NNW 22:17:30 10° NNE visible
31 May -0.8 23:50:31 10° NNW 23:52:33 15° N 23:54:32 10° NE visible
01 Jun -1.6 01:26:43 10° NW 01:28:43 26° NNW 01:28:43 26° NNW visible
01 Jun -0.8 22:58:11 10° NW 23:00:05 14° N 23:02:00 10° NE visible
